Wind_Speed
12 11 11 10 9 8 9 8 8 7 7 6 5 5 4 3 3 2 2 2 2 2 3 3 4 4 5 5 6 6 7 7 7 6 6 6 7 7 6 7 7 8 8 8 8 8 8 8 8
13 13 12 12 11 10 10 10 9 9 8 7 6 6 5 5 4 4 3 3 4 4 4 4 5 5 6 7 7 7 8 8 8 8 8 8 8 8 8 8 9 9 9 10 10 10 9 9 9
14 14 13 13 13 12 12 11 10 10 9 8 7 7 6 6 5 5 5 5 5 5 6 6 6 7 8 8 8 9 9 10 10 9 9 9 10 10 10 10 10 10 11 11 12 11 11 11 11
15 14 14 14 14 14 13 12 11 10 10 9 8 7 7 7 6 6 6 6 7 7 8 8 8 9 9 10 10 11 11 11 11 11 11 11 11 11 11 11 12 12 12 13 13 13 13 13 12
16 15 15 15 15 15 14 13 12 12 10 9 8 8 8 8 8 8 8 8 8 9 9 9 10 11 11 11 12 12 12 12 12 12 12 12 12 12 13 13 14 14 14 14 14 14 14 14 14
16 15 15 15 16 15 14 14 13 12 11 10 9 10 9 9 9 9 9 10 10 10 11 11 12 12 12 12 13 13 13 13 13 13 13 13 14 14 14 15 15 15 15 16 16 16 15 15 16
16 15 15 16 16 16 15 14 13 12 12 12 11 10 10 11 10 10 11 11 12 13 12 13 13 13 13 13 13 13 14 14 14 14 14 15 15 15 15 16 16 17 17 17 17 17 17 17 17
17 16 16 16 17 17 16 14 14 13 13 13 13 12 11 11 11 11 12 13 13 13 13 12 13 13 14 14 14 15 15 15 15 15 15 15 16 17 17 17 17 18 18 19 19 19 19 19 19
17 17 17 17 17 17 16 15 15 14 14 14 14 13 12 11 11 12 13 14 14 14 13 13 14 14 15 15 16 16 16 16 16 17 17 17 18 18 18 19 20 20 20 21 21 21 21 21 21
18 18 19 19 18 17 16 15 15 15 15 15 14 13 14 13 13 13 14 14 14 14 15 14 15 16 16 16 17 17 17 18 18 18 19 19 19 20 20 21 21 21 21 22 22 22 23 23 22
19 20 19 18 18 17 16 16 15 15 15 15 15 15 15 15 15 15 15 15 16 16 15 16 17 17 17 17 18 18 18 19 19 19 19 20 20 21 21 22 22 23 23 23 24 24 24 24 24
18 19 19 18 18 17 17 17 16 16 16 16 16 15 15 15 15 16 16 16 16 16 16 16 17 18 18 19 19 19 19 19 20 20 20 21 22 22 23 23 23 24 24 25 25 25 25 25 25
18 19 19 18 18 18 17 17 17 17 16 16 16 17 17 16 16 16 16 17 18 18 18 17 17 18 19 20 20 20 20 20 20 21 21 22 23 23 23 24 24 24 25 25 26 26 26 26 26
19 19 19 19 19 18 18 18 18 17 17 16 17 17 17 17 17 17 17 18 18 19 19 19 19 19 20 21 21 21 21 21 22 22 23 23 23 23 23 24 25 26 26 27 27 27 28 28 28
18 19 19 19 19 19 19 19 19 18 18 18 18 18 18 18 18 18 18 18 19 19 20 19 20 20 20 21 20 21 22 23 23 24 24 24 24 24 24 25 26 27 27 28 28 28 29 29 29
17 18 19 19 19 18 18 19 19 19 19 19 19 19 18 19 18 18 19 19 20 20 20 20 20 20 19 20 21 22 23 24 24 25 25 25 25 25 26 26 26 27 28 28 28 29 29 28 28
16 17 18 19 19 18 18 19 19 19 19 19 18 18 18 19 19 19 19 20 20 20 20 20 20 20 20 21 22 23 23 24 24 25 26 26 26 26 27 27 27 27 28 28 29 29 28 28 29
15 16 17 18 18 18 18 19 19 19 18 18 19 18 18 18 19 20 20 20 21 21 22 21 21 21 21 22 22 23 23 24 25 26 26 27 27 28 28 28 28 28 28 29 29 29 29 28 28
15 16 16 18 18 18 18 19 19 18 18 19 18 18 18 18 19 19 20 21 21 22 21 21 21 21 22 23 23 24 25 25 26 26 27 27 28 28 28 28 29 29 29 29 29 29 29 28 27
14 15 16 17 18 18 18 18 19 18 18 19 19 18 18 19 19 19 20 21 21 21 22 22 22 23 22 23 24 25 25 26 27 27 27 27 28 28 28 28 30 30 30 30 30 29 28 27 27
14 14 15 17 18 18 18 18 18 19 19 19 19 19 18 19 20 21 20 20 20 21 22 21 21 21 22 22 24 24 24 26 27 26 26 27 27 28 28 29 29 30 30 30 30 29 29 28 29
14 15 16 17 16 17 17 18 18 19 19 18 18 18 18 19 20 20 19 20 21 22 21 21 21 22 22 23 24 24 25 25 26 26 26 27 27 27 28 29 29 30 30 30 30 29 29 29 29
15 15 16 17 17 18 18 17 16 17 18 18 18 18 18 18 20 19 19 20 21 22 22 22 23 23 23 23 24 24 24 24 25 26 26 27 28 28 28 29 29 29 30 30 29 29 29 29 28
15 15 16 17 17 17 17 17 15 16 17 17 18 19 19 19 20 20 21 21 22 22 23 23 23 24 24 23 24 23 23 24 25 26 27 27 27 28 28 29 29 29 29 29 28 28 28 28 27
14 13 13 13 14 15 15 17 16 17 16 16 17 19 19 20 20 21 21 21 22 23 23 23 23 23 22 22 23 23 23 24 25 25 26 26 27 28 28 29 29 28 27 27 27 27 26 26 26
14 13 13 14 14 13 16 16 16 17 17 17 17 18 19 19 20 21 21 21 22 22 22 23 22 22 22 23 23 23 24 24 24 25 25 26 27 28 27 26 26 26 26 25 24 24 24 24 24
13 13 14 15 15 15 15 16 17 16 17 17 17 17 18 18 19 20 20 21 21 21 21 22 22 22 22 23 23 23 23 23 24 25 26 26 26 26 25 24 24 24 24 23 23 23 22 23 23
14 14 14 13 14 15 16 16 16 16 16 16 16 17 17 18 19 19 19 20 20 21 21 21 21 21 22 23 22 21 21 22 23 23 22 23 23 22 21 22 23 23 22 22 22 22 22 22 22
15 15 15 14 15 14 15 16 17 17 17 17 17 18 18 18 18 19 19 20 20 21 21 21 20 19 20 21 21 21 21 21 21 21 21 21 20 21 21 21 22 21 21 21 21 22 22 22 22
14 14 15 15 16 16 16 17 18 17 18 18 17 17 18 17 18 18 18 19 19 20 20 20 19 18 19 19 20 20 19 20 20 20 19 19 20 20 20 21 21 21 21 20 21 21 21 22 22
Wind_Direction
227 226 225 223 219 215 220 219 217 216 220 221 225 229 225 228 235 242 252 255 259 273 284 280 284 286 287 290 293 294 293 292 295 296 297 299 301 302 304 307 308 306 305 306 305 302 301 301 303
226 226 226 225 219 219 226 223 225 226 228 231 236 237 241 245 248 252 263 271 268 274 281 278 283 284 281 283 287 291 293 294 295 296 298 299 298 297 298 299 299 299 298 297 296 297 296 295 294
226 226 226 226 223 219 228 225 226 231 231 234 240 247 254 255 258 265 276 283 280 283 282 277 281 283 281 282 285 288 291 294 295 296 298 298 298 297 296 295 296 294 294 293 293 293 291 290 290
227 225 227 228 229 228 228 228 228 233 233 234 241 252 259 262 266 271 275 278 280 283 281 278 278 281 283 282 283 287 291 293 294 295 297 298 296 296 295 293 292 292 293 293 292 293 290 286 286
225 225 227 229 231 231 230 230 230 234 235 237 247 257 258 262 268 271 276 277 277 276 274 275 276 278 282 284 285 286 290 290 293 295 297 298 295 294 293 292 291 291 292 292 290 291 291 286 285
223 223 225 228 234 233 232 232 234 235 236 242 253 258 262 267 266 270 275 276 275 273 270 271 273 276 278 281 283 282 286 290 292 295 295 294 293 292 291 290 289 289 289 289 288 288 286 285 283
222 221 223 228 234 234 232 232 234 238 241 246 253 258 265 272 273 274 275 276 276 274 270 270 270 271 273 277 280 282 284 287 290 292 293 291 292 291 289 289 288 289 288 287 286 286 285 284 282
221 222 224 229 233 234 234 235 237 240 243 250 256 260 267 270 276 279 281 282 279 274 269 268 268 268 271 275 280 285 286 286 288 289 290 290 290 290 287 287 287 287 286 285 284 285 284 283 283
221 220 224 230 233 237 237 237 240 244 248 254 259 263 266 271 276 280 283 282 280 277 274 274 271 272 273 276 280 283 284 285 286 288 288 288 288 289 289 289 288 287 286 285 285 285 283 281 280
221 220 225 230 234 238 240 240 243 246 251 257 262 267 269 273 277 281 284 284 282 281 281 279 276 275 275 275 278 279 281 283 285 287 288 288 288 289 288 289 289 288 287 286 284 284 283 281 279
221 223 229 233 236 239 242 243 246 248 253 259 263 269 275 275 280 285 284 282 282 282 280 277 276 277 275 275 276 277 280 282 284 286 287 288 289 290 290 290 289 288 287 287 284 283 282 281 279
223 226 230 234 237 241 244 246 248 249 256 261 266 272 280 279 281 283 284 284 282 282 279 278 275 277 276 275 275 277 280 283 284 286 287 288 289 290 290 291 290 289 287 287 286 283 282 283 280
225 227 231 235 237 242 246 246 250 251 259 266 270 273 279 279 278 280 281 282 281 282 278 276 276 275 275 274 275 276 279 281 283 285 285 287 288 288 289 289 288 286 286 285 285 283 283 282 281
227 229 233 236 238 242 246 248 251 256 262 267 271 273 276 276 277 279 280 280 280 280 275 273 275 276 274 272 273 275 278 280 282 283 284 285 286 286 287 285 286 285 283 283 283 283 283 283 281
229 233 236 237 241 245 250 253 256 260 264 268 270 271 275 275 276 277 279 280 282 280 275 274 277 278 273 273 274 277 279 280 283 284 284 285 285 285 285 285 285 286 284 283 283 284 283 281 279
231 236 240 243 246 250 254 258 262 264 266 268 270 270 272 273 275 276 279 281 282 282 280 279 279 280 279 278 279 282 283 283 285 285 284 284 283 284 286 286 286 286 285 284 284 285 283 280 278
235 237 243 248 249 252 255 259 267 266 265 267 269 270 271 272 273 275 277 278 280 282 283 282 283 284 284 283 282 285 286 287 288 286 284 283 283 284 286 287 287 286 286 285 286 285 282 280 278
237 242 247 250 253 255 257 261 267 265 263 266 269 270 269 270 274 273 272 275 279 282 283 283 285 286 286 284 285 286 287 288 287 286 285 284 283 285 286 286 286 286 287 286 286 285 283 281 280
236 243 247 251 255 258 261 263 266 265 265 266 267 269 271 272 274 275 274 276 281 283 283 283 285 286 287 287 288 288 288 287 287 288 287 285 286 286 287 286 286 287 288 287 287 285 284 282 281
242 248 251 253 255 258 261 264 268 267 267 265 265 267 271 272 273 274 277 280 284 283 282 281 283 285 288 290 290 289 287 288 287 287 287 288 287 286 287 288 287 288 289 288 286 285 283 282 282
246 249 250 252 255 260 265 268 270 269 268 268 267 268 270 271 271 272 277 281 284 285 283 282 284 286 288 290 291 290 289 290 288 286 285 286 286 287 288 288 289 289 288 287 286 284 282 282 282
248 252 254 255 258 263 269 274 272 269 267 268 267 269 269 270 275 275 276 281 285 288 286 285 285 287 288 289 288 289 291 292 290 286 284 286 287 288 289 289 289 290 290 289 285 284 282 281 281
247 252 253 257 260 263 270 270 267 270 269 269 266 266 269 273 276 277 276 281 285 287 285 285 285 287 288 288 288 289 290 291 291 288 288 287 287 288 291 291 291 291 291 290 287 285 283 282 281
251 254 257 258 262 264 268 269 270 270 270 268 266 268 271 273 275 276 278 280 285 285 286 287 286 286 286 286 287 290 292 292 292 291 290 290 291 291 292 292 293 293 292 291 289 287 285 283 282
254 255 262 265 265 270 272 272 271 271 272 269 268 269 271 274 276 278 278 280 283 284 286 288 289 288 287 287 288 293 294 294 293 292 292 293 293 293 293 293 294 294 294 292 291 288 287 285 284
257 254 258 261 267 269 272 275 273 274 273 272 272 273 272 274 278 279 278 280 283 285 288 289 291 291 292 293 293 294 294 293 292 292 293 294 294 294 294 295 295 295 295 295 294 292 290 287 285
256 256 257 262 265 267 269 272 275 276 277 275 274 274 273 274 276 278 279 280 283 286 289 290 290 290 294 295 295 296 295 295 294 293 294 295 297 296 296 297 299 298 296 296 296 296 295 291 289
254 257 261 261 263 267 275 279 278 281 280 279 275 275 274 274 273 275 278 280 283 286 288 290 291 291 294 296 296 298 298 298 298 298 298 300 301 301 300 301 302 301 299 298 297 296 295 293 291
260 258 260 261 261 265 273 275 278 283 284 283 280 277 276 274 274 275 277 280 281 283 285 288 288 291 293 296 299 302 301 302 302 302 303 304 305 304 302 303 304 303 302 300 299 297 295 294 293
263 260 261 263 267 268 271 274 276 281 283 283 284 279 277 276 277 279 280 282 284 287 288 288 290 293 295 296 299 302 302 304 305 304 304 306 309 310 308 307 307 305 302 302 300 300 299 297 295
Height
5900 5902 5904 5905 5908 5910 5911 5911 5911 5912 5912 5912 5912 5912 5912 5912 5913 5914 5912 5910 5909 5909 5908 5908 5908 5907 5907 5907 5906 5906 5905 5905 5904 5903 5902 5902 5901 5900 5900 5900 5899 5899 5898 5898 5897 5897 5897 5896 5895
5898 5900 5902 5904 5907 5909 5910 5909 5910 5910 5911 5911 5910 5911 5910 5910 5910 5910 5909 5909 5908 5908 5907 5907 5906 5906 5906 5905 5905 5904 5904 5903 5902 5902 5901 5900 5899 5899 5898 5898 5897 5897 5896 5896 5895 5895 5894 5894 5893
5896 5898 5901 5903 5904 5907 5908 5907 5908 5908 5909 5909 5909 5909 5909 5909 5909 5908 5908 5907 5907 5906 5906 5905 5905 5904 5904 5904 5903 5902 5902 5901 5900 5900 5899 5898 5897 5897 5896 5896 5895 5895 5894 5894 5893 5892 5892 5892 5891
5894 5896 5899 5901 5902 5904 5904 5905 5906 5906 5907 5907 5907 5908 5907 5907 5907 5907 5906 5906 5905 5905 5904 5903 5903 5902 5902 5901 5901 5900 5900 5899 5898 5897 5896 5896 5895 5895 5894 5893 5893 5892 5892 5891 5891 5890 5889 5889 5888
5891 5894 5897 5898 5899 5900 5901 5902 5903 5904 5905 5905 5906 5906 5906 5905 5905 5905 5904 5904 5903 5903 5902 5901 5901 5901 5900 5900 5899 5898 5897 5897 5896 5895 5894 5893 5893 5892 5891 5891 5890 5890 5889 5888 5888 5887 5886 5886 5885
5889 5892 5894 5896 5896 5898 5899 5900 5901 5902 5903 5904 5904 5904 5904 5904 5903 5903 5902 5902 5901 5900 5899 5899 5898 5898 5898 5897 5897 5896 5895 5894 5893 5892 5892 5891 5890 5889 5888 5888 5887 5886 5886 5885 5884 5884 5883 5883 5882
5887 5889 5891 5893 5894 5895 5897 5898 5899 5900 5901 5902 5902 5902 5902 5901 5901 5900 5900 5899 5898 5898 5897 5896 5896 5895 5895 5894 5894 5893 5892 5891 5891 5890 5889 5888 5887 5886 5885 5884 5883 5883 5882 5881 5881 5880 5879 5879 5878
5883 5887 5888 5889 5891 5892 5894 5895 5897 5898 5899 5900 5900 5900 5899 5899 5898 5898 5898 5897 5896 5895 5894 5893 5893 5893 5892 5892 5891 5890 5890 5889 5888 5887 5886 5885 5884 5882 5881 5880 5880 5879 5878 5877 5876 5876 5875 5875 5874
5880 5884 5885 5887 5888 5890 5891 5893 5894 5895 5896 5897 5897 5897 5897 5896 5896 5896 5895 5894 5893 5893 5891 5891 5890 5890 5889 5889 5888 5887 5886 5885 5884 5883 5882 5881 5880 5879 5877 5877 5876 5875 5874 5873 5872 5871 5870 5870 5869
5877 5881 5882 5884 5886 5887 5889 5890 5892 5893 5894 5894 5894 5895 5894 5894 5893 5893 5892 5891 5891 5890 5889 5888 5887 5887 5886 5885 5884 5884 5883 5882 5881 5880 5879 5877 5876 5875 5873 5872 5871 5870 5869 5868 5867 5866 5865 5865 5864
5874 5877 5878 5881 5882 5884 5886 5887 5888 5890 5891 5891 5892 5892 5892 5891 5890 5890 5889 5888 5888 5887 5885 5884 5884 5883 5883 5882 5881 5880 5879 5878 5877 5876 5875 5873 5872 5871 5869 5868 5867 5865 5864 5863 5862 5861 5860 5859 5859
5872 5874 5876 5878 5880 5881 5883 5884 5885 5886 5887 5888 5888 5889 5888 5888 5887 5887 5886 5885 5884 5883 5882 5881 5880 5879 5879 5878 5877 5876 5875 5874 5873 5872 5871 5869 5868 5866 5865 5863 5862 5861 5859 5858 5856 5855 5855 5854 5853
5869 5871 5873 5875 5877 5878 5880 5881 5882 5883 5884 5884 5885 5885 5885 5884 5884 5883 5883 5882 5880 5880 5879 5878 5877 5876 5875 5874 5873 5872 5871 5870 5869 5868 5866 5865 5863 5862 5860 5859 5857 5855 5854 5853 5852 5850 5849 5848 5847
5866 5868 5870 5872 5874 5875 5877 5878 5879 5880 5880 5881 5881 5882 5882 5881 5881 5880 5879 5878 5877 5876 5874 5873 5872 5871 5870 5869 5868 5867 5866 5865 5864 5863 5861 5860 5858 5856 5855 5853 5851 5850 5849 5848 5846 5844 5843 5842 5841
5863 5866 5867 5869 5871 5872 5874 5875 5876 5877 5877 5878 5878 5878 5878 5878 5877 5876 5875 5874 5873 5872 5870 5868 5868 5867 5866 5865 5864 5863 5862 5860 5859 5858 5856 5855 5853 5851 5849 5848 5846 5845 5843 5841 5840 5838 5836 5835 5834
5861 5864 5865 5866 5868 5869 5873 5873 5872 5873 5874 5874 5874 5874 5874 5873 5873 5872 5871 5870 5869 5868 5866 5865 5864 5863 5861 5860 5859 5858 5857 5856 5854 5853 5851 5850 5848 5846 5844 5842 5841 5839 5837 5835 5833 5832 5830 5828 5827
5859 5862 5863 5864 5865 5866 5868 5868 5869 5869 5869 5869 5870 5870 5870 5869 5869 5868 5867 5866 5865 5864 5862 5861 5860 5858 5857 5856 5855 5854 5852 5851 5849 5847 5846 5844 5842 5840 5838 5836 5834 5832 5831 5829 5826 5824 5822 5821 5819
5858 5859 5860 5861 5861 5862 5864 5864 5865 5865 5865 5865 5866 5866 5866 5865 5865 5864 5863 5862 5861 5860 5858 5857 5855 5854 5853 5852 5850 5848 5847 5845 5843 5842 5840 5838 5837 5834 5832 5830 5828 5826 5824 5822 5819 5817 5815 5813 5812
5854 5855 5856 5857 5857 5859 5860 5860 5861 5861 5861 5861 5861 5861 5861 5861 5860 5859 5858 5857 5856 5855 5853 5852 5851 5850 5848 5846 5845 5843 5842 5840 5838 5836 5834 5832 5830 5828 5826 5824 5822 5819 5817 5814 5812 5810 5807 5806 5804
5851 5852 5852 5853 5854 5855 5856 5856 5857 5857 5857 5857 5857 5857 5857 5857 5856 5855 5854 5853 5852 5850 5849 5847 5845 5844 5843 5841 5839 5838 5836 5833 5832 5829 5827 5826 5824 5822 5819 5817 5815 5812 5810 5807 5805 5803 5801 5799 5798
5848 5849 5849 5850 5850 5851 5852 5853 5853 5852 5852 5852 5853 5853 5853 5852 5852 5851 5850 5849 5848 5846 5844 5842 5841 5839 5837 5836 5834 5832 5830 5828 5825 5823 5821 5819 5817 5815 5813 5810 5808 5805 5802 5800 5797 5796 5794 5792 5791
5845 5845 5846 5846 5847 5848 5849 5850 5849 5848 5848 5848 5848 5848 5848 5848 5847 5846 5846 5844 5843 5841 5839 5837 5836 5834 5832 5830 5829 5827 5824 5822 5819 5817 5815 5813 5810 5808 5805 5803 5800 5797 5794 5792 5790 5788 5786 5785 5783
5842 5842 5842 5843 5844 5845 5845 5846 5846 5844 5844 5843 5843 5843 5843 5842 5842 5841 5841 5840 5838 5836 5834 5832 5831 5829 5827 5825 5823 5821 5818 5816 5813 5811 5809 5807 5804 5801 5798 5795 5793 5790 5787 5784 5782 5780 5778 5777 5775
5838 5839 5839 5840 5841 5842 5842 5842 5842 5841 5840 5840 5839 5838 5838 5838 5837 5837 5836 5834 5833 5831 5829 5827 5825 5823 5822 5819 5818 5815 5813 5810 5807 5805 5802 5800 5797 5794 5791 5788 5785 5782 5779 5776 5774 5772 5771 5769 5768
5835 5837 5838 5838 5838 5839 5838 5837 5838 5836 5836 5835 5835 5834 5834 5833 5832 5832 5831 5830 5828 5825 5824 5822 5820 5818 5816 5814 5812 5809 5807 5804 5802 5799 5796 5793 5790 5787 5784 5781 5778 5775 5772 5770 5767 5765 5764 5762 5760
5832 5833 5835 5836 5836 5836 5834 5833 5834 5832 5831 5831 5830 5830 5829 5828 5828 5827 5826 5824 5823 5821 5819 5817 5815 5813 5811 5809 5806 5804 5801 5798 5796 5793 5790 5787 5784 5781 5777 5774 5771 5769 5766 5763 5761 5759 5757 5755 5753
5828 5829 5830 5831 5831 5831 5830 5830 5829 5827 5827 5826 5826 5825 5824 5824 5823 5822 5820 5819 5817 5815 5814 5812 5810 5808 5806 5804 5801 5798 5796 5793 5790 5786 5784 5781 5777 5774 5771 5768 5765 5762 5760 5757 5755 5753 5751 5749 5747
5825 5825 5826 5826 5826 5827 5827 5826 5826 5823 5822 5821 5821 5820 5819 5818 5818 5816 5815 5814 5812 5811 5809 5807 5805 5803 5801 5798 5796 5793 5790 5787 5784 5781 5778 5775 5772 5768 5765 5763 5760 5757 5754 5752 5749 5747 5745 5743 5741
5821 5821 5821 5822 5822 5822 5822 5825 5820 5819 5818 5817 5816 5815 5814 5813 5812 5811 5810 5809 5808 5806 5804 5802 5800 5798 5796 5794 5791 5788 5785 5782 5779 5776 5773 5770 5767 5764 5760 5757 5754 5751 5749 5746 5744 5742 5739 5737 5735
5816 5816 5817 5818 5817 5817 5817 5820 5815 5814 5813 5812 5811 5810 5809 5808 5807 5806 5805 5804 5802 5801 5799 5797 5795 5793 5791 5789 5786 5783 5780 5777 5774 5771 5768 5765 5762 5759 5756 5752 5749 5746 5744 5741 5739 5736 5734 5731 5729